This demonstration page uses our WeatherBlox Daily Observations layout. Learn more.

Left ArrowRight Arrow

Hourly Observations for November 13, 2015

Temp ( °F °C ) Dew Point ( °F °C ) Humidity (%) Winds ( mph kmh ) Pressure ( in mb ) Visibility ( mi km ) Precip ( " mm )
12:53 am 00:53 Clear 53 11.7 38 3.3 57 57 NW 6 9 30.06 1018 10 16 0.00 0.00
1:53 am 01:53 Clear 52 11.1 38 3.3 59 59 NW 6 9 30.07 1018 10 16 0.00 0.00
2:53 am 02:53 Clear 51 10.6 38 3.3 61 61 NNW 6 9 30.08 1019 10 16 0.00 0.00
3:53 am 03:53 Clear 51 10.6 37 2.8 59 59 NNW 8 13 30.09 1019 10 16 0.00 0.00
4:53 am 04:53 Clear 50 10 37 2.8 61 61 NNW 6 9 30.09 1019 10 16 0.00 0.00
5:53 am 05:53 Clear 49 9.4 37 2.8 64 64 NNW 7 11 30.10 1019 10 16 0.00 0.00
6:53 am 06:53 Clear 49 9.4 38 3.3 66 66 NNW 8 13 30.11 1020 10 16 0.00 0.00
7:53 am 07:53 Sunny 50 10 38 3.3 63 63 NNW 9 15 30.14 1021 10 16 0.00 0.00
8:53 am 08:53 Sunny 52 11.1 37 2.8 57 57 VRB 6 9 30.16 1021 10 16 0.00 0.00
9:53 am 09:53 Sunny 55 12.8 32 0 42 42 N 18 30 30.17 1022 10 16 0.00 0.00
10:53 am 10:53 Sunny 57 13.9 30 -1.1 36 36 NW 17 28 30.18 1022 10 16 0.00 0.00
11:53 am 11:53 Sunny 60 15.6 28 -2.2 30 30 NNW 13 20 30.16 1022 10 16 0.00 0.00
12:53 pm 12:53 Sunny 61 16.1 24 -4.4 24 24 N 17 28 30.16 1021 10 16 0.00 0.00
1:53 pm 13:53 Sunny 60 15.6 24 -4.4 25 25 NNW 15 24 30.14 1021 10 16 0.00 0.00
2:53 pm 14:53 Sunny 61 16.1 25 -3.9 25 25 NW 14 22 30.13 1020 10 16 0.00 0.00
3:53 pm 15:53 Sunny 62 16.7 27 -2.8 26 26 NW 14 22 30.14 1021 10 16 0.00 0.00
6:53 pm 18:53 Clear 48 8.9 32 0 54 54 Calm 30.19 1022 10 16 0.00 0.00
7:53 pm 19:53 Clear 44 6.7 34 1.1 68 68 Calm 30.21 1023 10 16 0.00 0.00
8:53 pm 20:53 Clear 42 5.6 36 2.2 79 79 Calm 30.22 1024 10 16 0.00 0.00
9:53 pm 21:53 Clear 40 4.4 35 1.7 83 83 Calm 30.24 1024 10 16 0.00 0.00
10:53 pm 22:53 Clear 41 5 33 0.6 73 73 SSE 3 6 30.26 1025 10 16 0.00 0.00
11:53 pm 23:53 Clear 43 6.1 28 -2.2 56 56 Calm 30.26 1025 10 16 0.00 0.00

Powered by AerisWeather